sat.trackr.live / text

‹ back to catalog

IRIDIUM 148

NORAD 43255 · 2018-030G

PAYLOAD ACTIVE UNKNOWN

§ Identity

Operator
Country
US
Launch date
2018-03-30
Launch site
AFWTR
Launch vehicle
Mass (kg)
RCS (m²)

Purposes: comms

External: N2YO · Heavens-Above · Gunter

§ Orbital elements

Epoch: 2026-09-19T12:55:35.357088Z

Period
100.40 min
Inclination
86.3915°
Eccentricity
0.0002260
Mean motion
14.34217408 rev/d
Perigee alt
776.1 km
Apogee alt
779.3 km
Semi-major
7,155.8 km
B*
2.2803e-5
RAAN
250.9925°
Arg perigee
90.9711°
Mean anomaly
269.1744°
Rev number
44,369

§ Raw data

IRIDIUM 1481 43255U 18030G   26262.53860367  .00000084  00000+0  22803-4 0  99972 43255  86.3915 250.9925 0002260  90.9711 269.1744 14.34217408443695

JSON: /api/v1/satellites/43255 · /tle

For live sub-satellite position, see the globe view (requires WebGL).

§ Visibility from observer

Set your observer location to see the next 7 days of passes ≥ 10°. The values pass through the URL so the page stays shareable.

No JS? Fill the form by hand. The geolocation button needs JavaScript.